TimeCST,TemperatureF,Dew PointF,Humidity,Sea Level PressureIn,VisibilityMPH,Wind Direction,Wind SpeedMPH,Gust SpeedMPH,PrecipitationIn,Events,Conditions,WindDirDegrees,DateUTC
12:53 AM,33.1,18.0,54,30.15,10.0,SSE,10.4,-,N/A,,Overcast,150,2013-01-25 06:53:00
1:53 AM,33.1,19.9,59,30.14,10.0,North,-9999.0,-,N/A,,Overcast,0,2013-01-25 07:53:00
2:53 AM,33.1,23.0,66,30.14,10.0,SSE,4.6,-,N/A,,Overcast,160,2013-01-25 08:53:00
3:53 AM,34.0,24.1,67,30.16,10.0,Calm,Calm,-,N/A,,Overcast,0,2013-01-25 09:53:00
4:53 AM,33.1,25.0,72,30.15,10.0,Calm,Calm,-,N/A,,Overcast,0,2013-01-25 10:53:00
5:53 AM,33.8,26.6,75,30.14,10.0,Calm,Calm,-,N/A,,Overcast,0,2013-01-25 11:53:00
6:53 AM,33.1,26.1,75,30.17,10.0,Calm,Calm,-,N/A,,Overcast,0,2013-01-25 12:53:00
7:53 AM,34.0,23.0,64,30.20,10.0,NW,6.9,-,N/A,,Overcast,310,2013-01-25 13:53:00
8:53 AM,34.0,23.0,64,30.23,10.0,NW,8.1,-,N/A,,Overcast,320,2013-01-25 14:53:00
9:53 AM,36.0,23.0,59,30.24,10.0,NNW,9.2,-,N/A,,Scattered Clouds,330,2013-01-25 15:53:00
10:53 AM,37.9,23.0,55,30.25,10.0,North,8.1,-,N/A,,Clear,350,2013-01-25 16:53:00
11:53 AM,39.9,23.0,51,30.25,10.0,North,5.8,-,N/A,,Clear,10,2013-01-25 17:53:00
12:53 PM,41.0,23.0,49,30.24,10.0,Variable,3.5,-,N/A,,Clear,0,2013-01-25 18:53:00
1:53 PM,45.0,23.0,42,30.22,10.0,NNW,6.9,-,N/A,,Clear,330,2013-01-25 19:53:00
2:53 PM,46.9,23.0,39,30.21,10.0,NW,6.9,-,N/A,,Clear,320,2013-01-25 20:53:00
3:53 PM,46.0,24.1,42,30.22,10.0,NW,5.8,-,N/A,,Clear,320,2013-01-25 21:53:00
4:53 PM,44.1,25.0,47,30.21,10.0,North,5.8,-,N/A,,Clear,360,2013-01-25 22:53:00
5:53 PM,42.1,24.1,49,30.22,10.0,Calm,Calm,-,N/A,,Clear,0,2013-01-25 23:53:00
6:53 PM,37.9,26.1,62,30.24,10.0,SW,3.5,-,N/A,,Clear,230,2013-01-26 00:53:00
7:53 PM,37.9,25.0,60,30.24,10.0,Calm,Calm,-,N/A,,Clear,0,2013-01-26 01:53:00
8:53 PM,36.0,25.0,64,30.25,10.0,Calm,Calm,-,N/A,,Clear,0,2013-01-26 02:53:00
9:53 PM,37.0,26.1,65,30.27,10.0,Calm,Calm,-,N/A,,Clear,0,2013-01-26 03:53:00
10:53 PM,35.1,27.0,72,30.27,9.0,Calm,Calm,-,N/A,,Clear,0,2013-01-26 04:53:00
11:53 PM,34.0,26.1,73,30.29,8.0,Calm,Calm,-,N/A,,Clear,0,2013-01-26 05:53:00